Location: Berg
(48.5667°N, 13.9833°E)
Time: 13:21:28
(UTC+00:00)

Cosmos 1190 Rocket - Pass Details

Date: 09 April 2020
Orbit: 757 x 779 km, 74.1° (Epoch: 27 May)

Event Time Altitude Azimuth Distance (km) Brightness Sun altitude
Rises 18:37:46 0° 190° (S) 3,247 7.1 -8.8°
Reaches altitude 10° 18:40:09 10° 187° (S) 2,322 6.3 -9.2°
Maximum altitude 18:45:21 62° 108° (ESE) 873 4.0 -10.0°
Drops below altitude 10° 18:50:34 10° 29° (NNE) 2,327 6.5 -10.7°
Sets 18:52:58 0° 26° (NNE) 3,255 7.3 -11.1°
